GFSFLT2_sfc_temp_126.txt.gz
Temp
70 71 72 71 71 71 70 71 72 72 72 72 73 72 72 73 73 73 73 73 73 73 72 72 72 71 71 69 68 68 67 66
69 69 70 70 71 70 70 70 71 71 71 71 71 71 71 72 72 72 73 73 72 72 71 71 71 70 70 68 68 68 68 68
69 69 69 69 70 71 70 71 70 70 71 70 69 71 71 72 71 71 71 71 71 71 70 70 69 69 69 68 67 67 67 67
70 69 69 69 74 70 69 70 72 72 71 71 72 71 70 72 71 69 70 69 70 70 69 69 68 67 67 68 66 67 68 67
70 70 69 69 70 68 68 68 70 71 72 72 72 71 70 70 70 70 70 69 69 69 68 68 67 67 66 66 66 67 67 67
66 66 68 68 69 68 68 69 68 70 71 71 71 70 70 70 70 69 69 70 69 69 68 68 67 67 67 66 66 66 66 66
62 62 61 63 64 66 68 68 68 69 70 70 71 70 70 70 70 69 70 70 69 69 68 67 67 67 67 67 67 66 67 66
62 61 61 60 59 60 61 66 68 68 69 72 70 71 71 70 70 69 69 70 69 69 69 67 66 66 66 67 67 67 67 66
59 60 60 59 58 58 58 59 63 65 68 70 71 71 70 71 70 70 70 70 69 68 67 67 66 66 66 67 67 67 67 67
58 60 57 57 58 57 57 57 58 60 63 66 69 70 71 68 69 70 71 70 69 68 68 66 65 65 65 66 67 67 67 68
53 54 53 54 56 56 56 55 54 56 57 60 64 68 69 68 70 70 68 69 69 68 67 67 66 65 65 65 67 67 66 68
50 50 49 51 52 53 54 54 56 56 57 58 62 62 65 68 69 67 67 68 67 68 68 68 68 67 68 66 64 66 66 65
46 45 46 47 47 46 48 49 52 54 56 58 59 62 62 63 68 66 67 68 68 68 67 66 66 67 63 61 61 63 65 65
43 43 43 44 46 46 47 47 50 51 54 55 57 58 59 60 61 67 67 67 67 66 66 66 66 65 64 61 58 60 62 64
41 41 41 43 43 43 44 45 46 47 49 51 54 55 55 57 59 62 66 65 63 67 67 66 65 65 65 60 58 59 59 61
39 39 40 42 41 40 39 38 38 42 44 48 50 52 53 55 58 60 61 65 65 67 68 67 68 65 64 66 62 60 57 56
37 38 39 40 40 39 38 37 39 41 42 44 47 49 50 52 55 56 59 62 66 67 67 66 68 67 67 68 61 59 59 56
36 37 37 38 38 38 36 35 36 37 39 40 42 45 47 50 52 55 59 61 62 65 68 68 67 68 67 68 67 63 60 57
38 38 36 37 38 37 36 36 36 36 38 40 41 42 44 46 49 50 54 57 60 63 65 66 66 65 66 66 65 67 66 61
36 36 35 36 36 36 38 38 38 39 40 41 42 44 45 47 47 48 50 53 56 59 63 65 66 65 64 60 59 60 64 62

GFSFLT2_sfc_temp_129.txt.gz
Temp
70 70 71 71 70 70 70 71 71 72 72 72 73 72 72 73 73 73 73 73 73 72 72 71 71 71 71 69 68 69 65 65
68 68 69 69 70 69 69 70 70 71 71 71 70 71 71 72 72 72 73 72 72 72 71 71 71 70 69 68 68 68 66 66
68 68 68 69 69 70 70 70 70 70 70 70 68 70 70 71 70 70 71 71 71 71 70 70 69 69 69 68 68 66 66 66
68 67 67 68 72 69 69 70 71 71 70 69 71 72 69 71 70 69 70 69 70 70 69 69 68 67 67 68 66 66 66 66
60 64 67 68 68 68 67 68 71 70 72 72 72 72 71 69 68 68 68 68 69 68 67 67 67 66 66 66 65 65 65 65
58 58 59 61 61 63 68 68 69 70 70 71 70 70 70 71 71 70 70 70 70 70 68 68 66 66 66 66 65 65 64 65
57 56 55 57 57 57 59 61 63 68 69 71 70 70 70 71 71 71 71 71 70 69 70 68 67 66 66 66 65 65 65 65
57 56 55 55 54 55 55 57 61 63 64 66 69 69 68 70 70 70 70 72 71 70 69 68 67 66 65 66 66 65 65 65
52 53 52 53 53 53 53 54 57 58 61 62 64 63 67 70 70 69 69 72 70 69 69 68 67 66 65 65 66 65 65 65
49 51 48 49 51 52 54 52 52 54 55 58 61 62 62 62 68 68 68 68 68 69 68 67 67 66 65 64 66 64 65 65
45 46 45 46 48 49 50 50 50 51 52 54 57 59 62 61 65 66 66 68 68 68 67 67 66 66 65 64 64 65 65 67
44 44 44 44 45 46 47 48 48 50 50 51 55 56 60 60 61 61 63 64 67 68 67 67 67 67 66 65 64 65 64 66
41 40 41 41 42 40 42 43 44 46 49 51 52 54 56 57 58 59 58 64 65 65 67 66 65 65 62 61 61 62 62 65
39 39 39 40 41 40 41 41 43 44 47 48 50 51 52 53 53 55 58 61 63 64 65 65 66 65 62 61 59 61 62 64
37 37 38 39 40 40 39 40 41 41 42 43 46 48 49 51 52 54 57 58 61 62 64 64 63 65 65 61 57 57 61 61
36 37 38 39 39 37 36 34 33 37 38 41 43 45 47 49 50 51 53 56 57 62 63 62 63 63 63 64 64 61 58 56
38 40 38 38 37 37 36 34 35 36 37 38 40 43 45 47 48 49 50 54 57 60 62 61 62 63 64 63 64 63 60 57
38 38 36 39 38 38 37 36 36 36 37 37 38 40 43 45 46 47 49 52 55 59 60 63 63 64 65 65 65 63 61 59
35 35 35 37 37 37 37 37 37 37 38 39 39 41 43 45 45 45 46 48 50 51 53 58 61 63 64 64 66 66 64 63
33 34 34 35 36 36 37 38 37 38 40 41 41 42 43 45 46 47 47 47 48 49 51 54 58 61 63 64 64 63 62 61

GFSFLT2_sfc_temp_132.txt.gz
Temp
69 69 71 70 70 70 70 70 71 72 72 72 73 72 72 73 73 73 73 73 73 73 72 71 72 71 70 69 68 69 67 67
68 68 69 69 69 69 68 69 70 70 71 70 70 70 71 71 71 72 73 72 72 72 71 71 71 70 69 68 68 68 66 66
68 67 67 68 69 70 70 70 69 69 70 70 68 70 69 70 70 70 71 71 71 71 70 70 69 69 69 68 68 67 66 66
59 61 63 68 71 68 68 71 71 71 71 70 70 71 71 70 69 69 69 69 69 69 69 69 68 67 67 68 67 67 66 66
55 56 58 58 61 64 68 69 70 70 70 70 71 71 71 71 69 68 68 68 69 68 67 67 67 66 66 66 66 66 66 66
54 52 54 54 56 57 59 60 64 67 69 70 69 68 68 68 70 70 70 71 70 70 68 67 67 66 66 65 65 65 65 65
51 51 50 52 53 53 54 55 58 61 64 64 66 68 68 68 69 70 70 71 70 69 69 68 68 68 66 65 65 65 65 65
49 50 48 49 49 49 50 52 54 56 59 61 63 63 64 68 68 69 68 70 71 70 69 68 67 67 67 66 66 65 65 65
46 48 47 46 46 47 48 49 51 51 53 56 58 61 61 61 63 67 69 69 69 68 68 66 66 67 66 66 66 66 66 65
44 46 44 43 44 46 47 47 48 49 50 52 55 56 58 59 60 64 66 67 68 68 68 66 66 65 66 65 66 65 65 66
41 42 41 41 43 44 44 45 45 45 47 48 51 53 57 56 58 60 65 63 60 65 67 67 65 65 65 66 65 65 65 67
40 41 40 41 42 42 43 43 44 45 46 46 49 51 53 53 55 56 58 59 60 61 63 66 65 66 66 65 64 65 64 65
38 38 39 39 38 37 39 40 40 43 44 46 47 47 50 50 50 51 53 55 58 62 62 62 63 65 64 63 63 64 63 65
37 37 38 38 39 38 38 38 39 41 43 43 43 45 46 48 47 49 51 53 55 60 61 61 61 64 62 62 59 60 62 64
36 37 38 38 39 38 37 38 38 38 38 39 41 43 44 45 46 48 48 50 52 55 60 62 60 62 64 62 57 57 60 62
37 38 37 38 39 37 36 35 34 37 37 39 39 41 42 44 45 46 46 47 49 52 57 62 62 59 62 64 64 60 57 56
35 39 37 39 39 39 37 36 37 39 39 39 41 42 42 42 44 44 45 47 48 50 54 57 61 61 61 61 60 60 61 58
33 37 36 38 36 37 37 36 37 37 38 38 40 42 43 44 45 45 44 44 46 50 54 57 59 61 62 61 60 59 60 59
32 33 32 33 34 35 35 36 36 36 37 38 39 41 42 44 45 45 46 47 46 46 48 50 52 59 62 62 62 62 62 62
31 30 31 33 33 34 33 35 35 36 38 38 39 41 42 45 45 45 45 47 47 46 46 47 50 52 56 61 62 63 63 63

GFSFLT2_sfc_temp_135.txt.gz
Temp
76 76 75 71 69 69 70 70 70 72 72 72 73 71 71 73 73 73 72 72 73 73 72 72 72 71 71 69 68 69 81 81
65 71 74 76 76 70 69 70 70 69 71 71 71 69 70 71 72 71 72 73 72 72 72 71 71 70 70 69 68 69 81 80
58 60 61 66 71 73 72 71 70 69 71 70 70 77 79 78 75 71 71 71 71 71 71 70 70 70 69 68 68 82 81 80
56 56 57 62 69 67 69 73 75 76 73 72 72 74 75 76 73 68 68 69 70 70 69 69 70 80 79 70 79 80 80 80
55 54 56 57 62 64 67 70 69 68 72 73 73 73 74 74 75 77 77 71 76 75 76 78 79 79 79 79 79 78 80 80
55 55 54 55 58 60 62 63 66 65 63 65 69 72 74 71 71 73 73 73 74 74 74 77 76 75 77 77 77 78 80 80
52 54 52 53 54 55 57 58 61 62 61 62 63 64 67 71 72 71 71 72 71 70 71 73 74 74 73 72 75 76 78 79
51 52 51 51 52 52 53 55 58 59 60 62 64 63 62 62 64 68 70 71 70 69 69 71 73 74 73 71 73 75 77 77
48 50 50 49 50 51 52 53 55 56 57 59 60 61 62 64 64 63 67 66 67 67 68 69 70 71 72 72 72 72 73 75
48 48 48 48 48 50 52 54 54 54 55 56 56 58 60 61 64 66 67 65 62 60 60 61 65 67 71 70 70 70 72 75
46 47 46 46 48 49 50 51 53 53 54 54 55 56 57 58 60 62 64 64 63 64 59 57 54 64 66 70 69 69 70 72
46 46 46 46 48 48 50 51 51 51 52 53 53 53 53 55 56 57 59 60 62 63 61 58 57 63 65 66 68 69 69 69
44 44 45 45 46 44 46 45 46 49 50 50 49 50 51 51 53 54 56 57 60 61 61 62 61 63 63 65 66 68 68 68
44 44 45 44 45 45 45 44 46 47 48 48 47 48 48 49 50 51 53 55 56 58 60 61 63 66 64 64 62 64 66 68
42 43 44 44 44 46 46 46 46 46 46 46 47 47 48 47 48 50 51 53 53 55 58 59 58 65 66 64 62 61 66 66
41 42 43 44 44 42 41 39 39 42 42 44 45 46 47 48 47 48 50 51 51 53 57 57 56 59 66 67 67 66 61 61
40 41 41 41 40 40 39 38 40 42 43 41 43 44 46 46 47 49 49 50 51 52 53 54 58 54 61 66 64 63 64 57
39 39 39 39 37 38 37 36 37 38 39 39 40 44 46 46 47 47 49 49 48 49 51 52 55 55 55 61 64 64 62 58
37 37 36 37 36 36 36 36 36 36 37 38 38 40 42 44 45 46 47 48 48 48 47 48 49 50 53 53 62 67 66 64
36 34 34 36 35 35 36 36 36 37 37 37 37 37 39 42 43 44 45 46 47 48 47 47 50 51 52 51 52 62 64 64